, AK

(GMT )
Denali Park

Weather History for PAIN - September, 2012

Change the Weather History Date:

Friday, September 28, 2012

  Actual Average Record
Temperature  
Mean Temperature 34 °F -  
Max Temperature 37 °F 44 °F 57 °F (1976)
Min Temperature 30 °F 24 °F 4 °F (1956)
Degree Days  
Heating Degree Days 32    
Moisture  
Dew Point 32 °F    
Average Humidity 92    
Maximum Humidity 100    
Minimum Humidity 81    
Precipitation  
Precipitation 0.00 in - - ()
Sea Level Pressure  
Sea Level Pressure 29.21 in    
Wind  
Wind Speed 10 mph (North)    
Max Wind Speed 16 mph    
Max Gust Speed 23 mph    
Visibility 9 miles    
Events      
Averages and records for this station are not official NWS values.
T = Trace of Precipitation, MM = Missing Value Source: NWS Daily Summary

Daily Weather History Graph

Daily Weather History Graph

Search for Another Location

Airport or City:

Trip Planner

Search our weather history database for the weather conditions in past years. The results will help you decide how hot, cold, wet, or windy it might be!

Date:

Astronomy

Sep. 28, 2012 Rise Set
Actual Time 7:57 AM AKDT 7:32 PM AKDT
Civil Twilight 7:10 AM AKDT 8:19 PM AKDT
Nautical Twilight 6:14 AM AKDT 9:15 PM AKDT
Astronomical Twilight 5:13 AM AKDT 10:15 PM AKDT
Moon 6:40 PM AKDT (9/28) 6:27 AM AKDT (9/28)
Length of Visible Light 13h 08m
Length of Day
11h 35m
Waxing Gibbous, 98% of the Moon is Illuminated
Sep 28
Waxing Gibbous
Sep 29
Full
Oct 7
Last Quarter
Oct 15
New
Oct 21
First Quarter

Hourly Weather History & Observations

Time (AKDT) Temp. Windchill Dew Point Humidity Pressure Visibility Wind Dir Wind Speed Gust Speed Precip Events Conditions
12:16 AM 37.4 °F 30.8 °F 33.8 °F 87% 29.07 in 10.0 mi North 9.2 mph 17.3 mph N/A   Overcast
12:36 AM 37.4 °F 30.8 °F 33.8 °F 87% 29.07 in 10.0 mi North 9.2 mph - N/A   Overcast
12:56 AM 37.4 °F 30.3 °F 33.8 °F 87% 29.07 in 10.0 mi North 10.4 mph - N/A   Overcast
1:16 AM 37.4 °F 32.1 °F 33.8 °F 87% 29.08 in 10.0 mi North 6.9 mph - N/A   Overcast
1:36 AM 37.4 °F 32.1 °F 33.8 °F 87% 29.09 in 10.0 mi North 6.9 mph - N/A   Overcast
1:56 AM 35.6 °F 28.0 °F 33.8 °F 93% 29.09 in 10.0 mi North 10.4 mph 16.1 mph N/A   Overcast
2:16 AM 35.6 °F 29.2 °F 33.8 °F 93% 29.08 in 10.0 mi North 8.1 mph - N/A   Overcast
2:36 AM 35.6 °F 28.6 °F 33.8 °F 93% 29.09 in 10.0 mi North 9.2 mph 16.1 mph N/A   Overcast
2:56 AM 35.6 °F 31.7 °F 33.8 °F 93% 29.09 in 10.0 mi North 4.6 mph - N/A   Overcast
3:16 AM 35.6 °F 27.5 °F 33.8 °F 93% 29.09 in 10.0 mi North 11.5 mph - N/A   Overcast
3:36 AM 35.6 °F 29.2 °F 33.8 °F 93% 29.09 in 10.0 mi North 8.1 mph - N/A   Overcast
3:56 AM 35.6 °F 31.7 °F 33.8 °F 93% 29.10 in 10.0 mi North 4.6 mph - N/A   Mostly Cloudy
4:16 AM 35.6 °F 28.6 °F 33.8 °F 93% 29.10 in 10.0 mi North 9.2 mph - N/A   Overcast
4:36 AM 35.6 °F 29.2 °F 33.8 °F 93% 29.10 in 10.0 mi North 8.1 mph - N/A   Overcast
4:56 AM 35.6 °F 28.0 °F 33.8 °F 93% 29.10 in 10.0 mi North 10.4 mph 18.4 mph N/A   Overcast
5:16 AM 37.4 °F 31.4 °F 33.8 °F 87% 29.10 in 10.0 mi North 8.1 mph 18.4 mph N/A   Overcast
5:36 AM 35.6 °F 28.0 °F 33.8 °F 93% 29.10 in 10.0 mi North 10.4 mph 17.3 mph N/A   Overcast
5:56 AM 35.6 °F 29.9 °F 33.8 °F 93% 29.10 in 10.0 mi North 6.9 mph 17.3 mph N/A   Overcast
6:16 AM 35.6 °F 28.6 °F 33.8 °F 93% 29.10 in 10.0 mi North 9.2 mph - N/A   Overcast
6:36 AM 35.6 °F 27.1 °F 33.8 °F 93% 29.10 in 10.0 mi North 12.7 mph 16.1 mph N/A   Overcast
6:56 AM 35.6 °F 27.5 °F 33.8 °F 93% 29.10 in 10.0 mi North 11.5 mph 17.3 mph N/A   Overcast
7:16 AM 33.8 °F 27.0 °F 32.0 °F 93% 29.11 in 10.0 mi North 8.1 mph 17.3 mph N/A   Overcast
7:36 AM 33.8 °F 26.4 °F 32.0 °F 93% 29.11 in 10.0 mi North 9.2 mph - N/A   Overcast
7:56 AM 33.8 °F 25.3 °F 32.0 °F 93% 29.11 in 10.0 mi North 11.5 mph 16.1 mph N/A   Overcast
8:16 AM 33.8 °F 26.4 °F 32.0 °F 93% 29.11 in 10.0 mi North 9.2 mph 16.1 mph N/A   Overcast
8:36 AM 33.8 °F 25.3 °F 32.0 °F 93% 29.12 in 9.0 mi North 11.5 mph 18.4 mph N/A   Overcast
8:56 AM 33.8 °F 26.4 °F 32.0 °F 93% 29.12 in 10.0 mi North 9.2 mph - N/A   Overcast
9:16 AM 33.8 °F 25.3 °F 32.0 °F 93% 29.13 in 10.0 mi North 11.5 mph 18.4 mph N/A   Overcast
9:36 AM 33.8 °F 26.4 °F 33.8 °F 100% 29.14 in 3.0 mi North 9.2 mph 17.3 mph N/A   Overcast
9:56 AM 33.8 °F 25.8 °F 33.8 °F 100% 29.14 in 2.5 mi North 10.4 mph 17.3 mph N/A   Overcast
10:16 AM 33.8 °F 26.4 °F 33.8 °F 100% 29.15 in 2.5 mi North 9.2 mph 17.3 mph N/A   Overcast
10:36 AM 33.8 °F 25.3 °F 32.0 °F 93% 29.16 in 5.0 mi North 11.5 mph - N/A   Overcast
10:56 AM 33.8 °F 25.8 °F 33.8 °F 100% 29.17 in 7.0 mi North 10.4 mph 16.1 mph N/A   Overcast
11:16 AM 33.8 °F 27.0 °F 32.0 °F 93% 29.18 in 3.0 mi North 8.1 mph - N/A   Overcast
11:36 AM 33.8 °F 25.3 °F 32.0 °F 93% 29.19 in 3.0 mi North 11.5 mph 17.3 mph N/A   Overcast
11:56 AM 33.8 °F 26.4 °F 33.8 °F 100% 29.19 in 9.0 mi North 9.2 mph - N/A   Overcast
12:16 PM 33.8 °F 26.4 °F 33.8 °F 100% 29.20 in 10.0 mi North 9.2 mph - N/A   Overcast
12:36 PM 35.6 °F 28.6 °F 33.8 °F 93% 29.20 in 10.0 mi North 9.2 mph - N/A   Overcast
12:56 PM 35.6 °F 27.5 °F 33.8 °F 93% 29.21 in 10.0 mi North 11.5 mph 16.1 mph N/A   Overcast
1:16 PM 35.6 °F 28.6 °F 33.8 °F 93% 29.22 in 10.0 mi North 9.2 mph 17.3 mph N/A   Overcast
1:36 PM 35.6 °F 28.0 °F 32.0 °F 87% 29.23 in 10.0 mi North 10.4 mph 16.1 mph N/A   Overcast
1:56 PM 35.6 °F 28.6 °F 32.0 °F 87% 29.24 in 10.0 mi North 9.2 mph - N/A   Overcast
2:16 PM 35.6 °F 28.6 °F 32.0 °F 87% 29.24 in 10.0 mi North 9.2 mph 17.3 mph N/A   Overcast
2:36 PM 37.4 °F 30.3 °F 32.0 °F 81% 29.25 in 10.0 mi North 10.4 mph 16.1 mph N/A   Overcast
2:56 PM 35.6 °F 28.0 °F 30.2 °F 81% 29.25 in 10.0 mi North 10.4 mph 16.1 mph N/A   Scattered Clouds
3:16 PM 35.6 °F 28.0 °F 30.2 °F 81% 29.25 in 10.0 mi NNE 10.4 mph 19.6 mph N/A   Mostly Cloudy
3:36 PM 35.6 °F 28.0 °F 30.2 °F 81% 29.26 in 10.0 mi NNE 10.4 mph 17.3 mph N/A   Clear
3:56 PM 35.6 °F 27.1 °F 30.2 °F 81% 29.26 in 10.0 mi North 12.7 mph 20.7 mph N/A   Scattered Clouds
4:16 PM 35.6 °F 27.5 °F 30.2 °F 81% 29.27 in 10.0 mi North 11.5 mph 21.9 mph N/A   Mostly Cloudy
4:36 PM 35.6 °F 26.6 °F 30.2 °F 81% 29.27 in 10.0 mi North 13.8 mph 19.6 mph N/A   Mostly Cloudy
4:56 PM 35.6 °F 27.1 °F 32.0 °F 87% 29.27 in 10.0 mi North 12.7 mph 21.9 mph N/A   Overcast
5:16 PM 35.6 °F 27.1 °F 30.2 °F 81% 29.28 in 10.0 mi North 12.7 mph 21.9 mph N/A   Mostly Cloudy
5:36 PM 35.6 °F 27.1 °F 32.0 °F 87% 29.29 in 10.0 mi North 12.7 mph 20.7 mph N/A   Mostly Cloudy
5:56 PM 35.6 °F 27.1 °F 32.0 °F 87% 29.30 in 10.0 mi North 12.7 mph 23.0 mph N/A   Mostly Cloudy
6:16 PM 33.8 °F 24.3 °F 33.8 °F 100% 29.31 in 10.0 mi North 13.8 mph 20.7 mph N/A   Overcast
6:36 PM 33.8 °F 25.3 °F 33.8 °F 100% 29.31 in 10.0 mi North 11.5 mph 21.9 mph N/A   Overcast
6:56 PM 33.8 °F 25.8 °F 33.8 °F 100% 29.33 in 10.0 mi North 10.4 mph 17.3 mph N/A   Overcast
7:16 PM 33.8 °F 25.8 °F 33.8 °F 100% 29.32 in 10.0 mi North 10.4 mph - N/A   Overcast
7:36 PM 33.8 °F 23.9 °F 32.0 °F 93% 29.32 in 10.0 mi North 15.0 mph 21.9 mph N/A   Mostly Cloudy
7:56 PM 33.8 °F 23.5 °F 32.0 °F 93% 29.33 in 10.0 mi North 16.1 mph 23.0 mph N/A   Overcast
8:16 PM 32.0 °F 22.5 °F 30.2 °F 93% 29.35 in 10.0 mi North 12.7 mph 21.9 mph N/A   Mostly Cloudy
8:36 PM 32.0 °F 23.0 °F 30.2 °F 93% 29.36 in 10.0 mi North 11.5 mph 17.3 mph N/A   Overcast
8:56 PM 32.0 °F 24.2 °F 30.2 °F 93% 29.36 in 10.0 mi North 9.2 mph 19.6 mph N/A   Overcast
9:16 PM 30.2 °F 21.3 °F 28.4 °F 93% 29.36 in 10.0 mi North 10.4 mph 17.3 mph N/A   Overcast
9:36 PM 30.2 °F 22.6 °F 30.2 °F 100% 29.37 in 10.0 mi North 8.1 mph - N/A   Mostly Cloudy
9:56 PM 30.2 °F 21.3 °F 30.2 °F 100% 29.38 in 10.0 mi North 10.4 mph - N/A   Overcast
10:16 PM 30.2 °F 22.6 °F 30.2 °F 100% 29.38 in 10.0 mi North 8.1 mph - N/A   Overcast
10:36 PM 30.2 °F 22.6 °F 30.2 °F 100% 29.39 in 10.0 mi North 8.1 mph - N/A   Overcast
10:56 PM 30.2 °F 21.9 °F 30.2 °F 100% 29.40 in 10.0 mi North 9.2 mph - N/A   Overcast
11:16 PM 30.2 °F 24.3 °F 30.2 °F 100% 29.41 in 10.0 mi North 5.8 mph - N/A   Overcast
11:36 PM 30.2 °F 23.4 °F 30.2 °F 100% 29.41 in 10.0 mi North 6.9 mph - N/A   Overcast
11:56 PM 30.2 °F 21.9 °F 30.2 °F 100% 29.42 in 10.0 mi North 9.2 mph - N/A   Overcast